Flag for Canada Weather past 2 weeks in Oakville, Ontario, Canada

Now
67 °F

Mild.


Feels Like: 67 °F
Forecast: 62 / 76 °F
Wind: 5 mph from West

Location: Burlington Piers

Current Time: Aug 1, 2014 at 9:41:21 AM

Latest Report: Aug 1, 2014 at 9:00 AM


Visibility: N/A

Pressure: 30.10 "Hg

Humidity: 79%

Dew point: 61 °F

Location of OakvilleLocation

Historic Weather in Oakville — Graph

°F

Oakville temperature yesterday

Maximum temperature yesterday: 76 °F (at 5:00 PM)
Minimum temperature yesterday: 61 °F (at 6:00 AM)
Average temperature yesterday: 68 °F

Past Weeks' High & Low Weather Summary

 TemperatureHumidityPressure
High83 °F (Jul 22, 7:00 PM)100% (Jul 21, 1:00 AM)30.24 "Hg (Jul 21, 1:00 AM)
Low53 °F (Jul 18, 6:00 AM)33% (Jul 17, 6:00 PM)29.56 "Hg (Jul 27, 9:00 PM)
Average67 °F71%29.98 "Hg
* Reported Jul 17 8:00 AM — Aug 1 8:00 AM, Oakville, Weather by CustomWeather, © 2014

Note: Actual official high and low records may vary slightly from our data, if they occured in-between our weather recording intervals... More about our weather records

Advertising

Oakville weather history for previous 24 hours

 ConditionsComfort  
Time TempWeatherWind HumidityBarometerVisibility
8:00 AM
Aug 1
66 °FMild.3 mph80%30.09 "HgN/A
7:00 AM65 °FMild.3 mph74%30.07 "HgN/A
6:00 AM65 °FMild.2 mph79%30.05 "HgN/A
5:00 AM65 °FMild.3 mph80%30.05 "HgN/A
4:00 AM65 °FMild.2 mph80%30.04 "HgN/A
3:00 AM66 °FMild.6 mph76%30.04 "HgN/A
2:00 AM68 °FMild.5 mph69%30.04 "HgN/A
1:00 AM69 °FMild.3 mph65%30.04 "HgN/A
12:00 AM69 °FMild.5 mph66%30.03 "HgN/A
11:00 PM
Jul 31
70 °FMild.7 mph58%30.04 "HgN/A
10:00 PM71 °FMild.7 mph53%30.04 "HgN/A
9:00 PM71 °FMild.8 mph61%30.03 "HgN/A
8:00 PM74 °FMild.10 mph56%30.01 "HgN/A
7:00 PM75 °FMild.9 mph56%30.00 "HgN/A
6:00 PM74 °FMild.7 mph49%30.00 "HgN/A
5:00 PM76 °FMild.8 mph44%30.00 "HgN/A
4:00 PM75 °FMild.7 mph43%30.00 "HgN/A
3:00 PM74 °FMild.7 mph45%29.99 "HgN/A
2:00 PM73 °FMild.8 mph49%29.99 "HgN/A
1:00 PM72 °FMild.7 mph54%29.99 "HgN/A
12:00 PM70 °FMild.6 mph64%29.98 "HgN/A
11:00 AM63 °FMild.5 mph77%29.99 "HgN/A
10:00 AM62 °FCool.3 mph76%29.99 "HgN/A
9:00 AM62 °FCool.5 mph72%29.99 "HgN/A
Weather by CustomWeather, © 2014

See weather overviewHow to use our weather pages